Weather History for Nashua, NH

Change the Weather History Date:

Tuesday, October 9, 2012

  Actual Average Record
Temperature  
Mean Temperature 49 °F -  
Max Temperature 55 °F 63 °F 84 °F (2011)
Min Temperature 43 °F 39 °F 21 °F (1953)
Degree Days  
Heating Degree Days 16    
Moisture  
Dew Point 45 °F    
Average Humidity 80    
Maximum Humidity 93    
Minimum Humidity 64    
Precipitation  
Precipitation 0.00 in - - ()
Sea Level Pressure  
Sea Level Pressure 30.26 in    
Wind  
Wind Speed 5 mph (NNE)    
Max Wind Speed 9 mph    
Max Gust Speed -    
Visibility 10 miles    
Events Rain    
Averages and records for this station are not official NWS values.
T = Trace of Precipitation, MM = Missing Value Source: NWS Daily Summary

Daily Weather History Graph

Daily Weather History Graph

Search for Another Location

Airport:

Trip Planner

Search our weather history database for the weather conditions in past years. The results will help you decide how hot, cold, wet, or windy it might be!

Date:

Astronomy

Oct. 09, 2012 Rise Set
Actual Time 6:52 AM EDT 6:12 PM EDT
Civil Twilight 6:24 AM EDT 6:41 PM EDT
Nautical Twilight 5:51 AM EDT 7:13 PM EDT
Astronomical Twilight 5:18 AM EDT 7:46 PM EDT
Moon 12:18 AM EDT (10/9) 2:45 PM EDT (10/9)
Length of Visible Light 12h 16m
Length of Day
11h 19m
Last Quarter, 37% of the Moon is Illuminated
Oct 9
Last Quarter
Oct 15
New
Oct 21
First Quarter
Oct 29
Full
Nov 6
Last Quarter

Hourly Weather History & Observations

Time (EDT) Temp. Windchill Dew Point Humidity Pressure Visibility Wind Dir Wind Speed Gust Speed Precip Events Conditions
12:51 AM 43.9 °F 41.3 °F 41.9 °F 93% 30.32 in 10.0 mi WNW 4.6 mph - N/A   Overcast
1:51 AM 45.0 °F 43.5 °F 41.9 °F 89% 30.33 in 10.0 mi NW 3.5 mph - N/A   Overcast
2:51 AM 45.0 °F 42.6 °F 41.9 °F 89% 30.31 in 10.0 mi NW 4.6 mph - N/A   Overcast
3:51 AM 45.0 °F 43.5 °F 43.0 °F 93% 30.31 in 10.0 mi NW 3.5 mph - N/A   Overcast
4:51 AM 45.0 °F 41.8 °F 43.0 °F 93% 30.31 in 10.0 mi WNW 5.8 mph - N/A   Clear
5:51 AM 45.9 °F 43.6 °F 43.0 °F 90% 30.30 in 10.0 mi NW 4.6 mph - N/A   Mostly Cloudy
6:13 AM 46.4 °F 45.2 °F 42.8 °F 87% 30.29 in 10.0 mi NW 3.5 mph - N/A   Overcast
7:29 AM 46.4 °F 45.2 °F 42.8 °F 87% 30.30 in 9.0 mi NNW 3.5 mph - N/A   Overcast
7:51 AM 46.9 °F - 43.0 °F 86% 30.30 in 10.0 mi NNW 3.5 mph - N/A   Overcast
8:51 AM 46.9 °F - 43.0 °F 86% 30.31 in 10.0 mi NNW 5.8 mph - N/A   Mostly Cloudy
9:51 AM 47.8 °F - 43.9 °F 86% 30.31 in 10.0 mi NNW 4.6 mph - 0.00 in Rain Light Rain
10:51 AM 50.9 °F - 45.9 °F 83% 30.30 in 10.0 mi North 3.5 mph - 0.00 in   Mostly Cloudy
11:51 AM 54.0 °F - 45.9 °F 74% 30.29 in 10.0 mi North 4.6 mph - N/A   Overcast
12:19 PM 53.6 °F - 46.4 °F 77% 30.26 in 10.0 mi NNE 5.8 mph - N/A   Overcast
12:27 PM 55.4 °F - 46.4 °F 72% 30.26 in 10.0 mi NNE 4.6 mph - N/A   Overcast
12:51 PM 54.9 °F - 46.9 °F 75% 30.27 in 10.0 mi ENE 5.8 mph - N/A   Overcast
1:36 PM 55.4 °F - 46.4 °F 72% 30.24 in 9.0 mi East 6.9 mph - N/A   Overcast
1:51 PM 54.9 °F - 46.9 °F 75% 30.25 in 10.0 mi Variable 6.9 mph - N/A   Mostly Cloudy
1:59 PM 55.4 °F - 46.4 °F 72% 30.24 in 10.0 mi East 6.9 mph - N/A   Overcast
2:51 PM 54.9 °F - 45.9 °F 72% 30.24 in 10.0 mi ENE 5.8 mph - N/A   Overcast
3:51 PM 55.9 °F - 43.9 °F 64% 30.22 in 10.0 mi East 9.2 mph - N/A   Overcast
4:51 PM 54.9 °F - 45.9 °F 72% 30.22 in 10.0 mi East 8.1 mph - N/A   Mostly Cloudy
5:51 PM 54.0 °F - 45.9 °F 74% 30.21 in 10.0 mi East 5.8 mph - N/A   Overcast
6:51 PM 54.0 °F - 45.9 °F 74% 30.21 in 10.0 mi East 8.1 mph - N/A   Overcast
7:10 PM 53.6 °F - 44.6 °F 72% 30.20 in 10.0 mi East 4.6 mph - N/A   Overcast
7:51 PM 52.9 °F - 45.0 °F 74% 30.21 in 10.0 mi ENE 4.6 mph - N/A   Overcast
8:51 PM 52.9 °F - 45.0 °F 74% 30.20 in 10.0 mi ENE 4.6 mph - N/A   Overcast
9:51 PM 50.9 °F - 43.9 °F 77% 30.20 in 10.0 mi North 3.5 mph - N/A   Overcast
10:51 PM 50.9 °F - 43.9 °F 77% 30.19 in 10.0 mi Calm Calm - N/A   Overcast
11:51 PM 50.0 °F - 43.9 °F 79% 30.16 in 10.0 mi NNE 4.6 mph - N/A   Overcast